When you browse on this site, cookies collect data to enhance your experience and personalize the content and advertising you see.
Visit our Privacy Policy to learn more. By continuing to use the site, you agree to this use of cookies and data.
  • In Österreich
  • Länderverzeichnis
  • Für 7 Tage
  • Wassertemperatur
  • Wetterkarte
  • News
  • Widgets
  • user-avatar
    Anmelden

    Stündliche Wetter Ottawa

    Heute, 29 Januar, Mittwoch

    Zeit Temperatur Niederschläge Wind Luftdruck Luftfeuchtigkeit
    00:00 -14°C° 0 mm 3 m/S 754 mmHg 91%
    01:00 -15°C° 0 mm 3 m/S 754 mmHg 93%
    02:00 -16°C° 0 mm 3 m/S 755 mmHg 92%
    03:00 -17°C° 0 mm 3 m/S 755 mmHg 92%
    04:00 -18°C° 0 mm 3 m/S 755 mmHg 91%
    05:00 -19°C° 0 mm 3 m/S 756 mmHg 90%
    06:00 -19°C° 0 mm 3 m/S 756 mmHg 90%
    07:00 -19°C° 0 mm 2 m/S 757 mmHg 91%
    08:00 -18°C° 0 mm 2 m/S 758 mmHg 89%
    09:00 -17°C° 0 mm 3 m/S 758 mmHg 88%
    10:00 -16°C° 0 mm 3 m/S 758 mmHg 86%
    11:00 -15°C° 0 mm 3 m/S 758 mmHg 86%
    12:00 -13°C° 0 mm 3 m/S 758 mmHg 85%
    13:00 -12°C° 0 mm 3 m/S 758 mmHg 85%
    14:00 -10°C° 0 mm 2 m/S 758 mmHg 86%
    15:00 -9°C° 0 mm 2 m/S 758 mmHg 87%
    16:00 -8°C° 0 mm 1 m/S 758 mmHg 88%
    17:00 -12°C° 0 mm 2 m/S 759 mmHg 88%
    18:00 -13°C° 0 mm 2 m/S 759 mmHg 89%
    19:00 -15°C° 0 mm 2 m/S 760 mmHg 89%
    20:00 -16°C° 0 mm 2 m/S 760 mmHg 89%
    21:00 -14°C° 0 mm 1 m/S 760 mmHg 88%
    22:00 -15°C° 0 mm 1 m/S 760 mmHg 88%
    23:00 -15°C° 0 mm 1 m/S 760 mmHg 88%

    Morgen, 30 Januar, Donnerstag

    Zeit Temperatur Niederschläge Wind Luftdruck Luftfeuchtigkeit
    00:00 -16°C° 0 mm 1 m/S 760 mmHg 88%
    01:00 -16°C° 0 mm 1 m/S 760 mmHg 88%
    02:00 -17°C° 0 mm 1 m/S 760 mmHg 89%
    03:00 -17°C° 0 mm 1 m/S 761 mmHg 89%
    04:00 -17°C° 0 mm 1 m/S 761 mmHg 89%
    05:00 -18°C° 0 mm 1 m/S 761 mmHg 90%
    06:00 -18°C° 0 mm 1 m/S 761 mmHg 91%
    07:00 -18°C° 0 mm 1 m/S 761 mmHg 92%
    08:00 -16°C° 0 mm 1 m/S 761 mmHg 90%
    09:00 -15°C° 0 mm 1 m/S 761 mmHg 89%
    10:00 -13°C° 0 mm 1 m/S 761 mmHg 88%
    11:00 -12°C° 0 mm 1 m/S 761 mmHg 87%
    12:00 -10°C° 0 mm 1 m/S 761 mmHg 85%
    13:00 -9°C° 0 mm 1 m/S 760 mmHg 84%
    14:00 -9°C° 0 mm 1 m/S 760 mmHg 86%
    15:00 -9°C° 0 mm 1 m/S 760 mmHg 88%
    16:00 -9°C° 0 mm 0 m/S 760 mmHg 90%
    17:00 -10°C° 0 mm 0 m/S 760 mmHg 90%
    18:00 -12°C° 0 mm 0 m/S 760 mmHg 91%
    19:00 -13°C° 0 mm 0 m/S 760 mmHg 92%
    20:00 -14°C° 0 mm 0 m/S 760 mmHg 91%
    21:00 -14°C° 0 mm 0 m/S 760 mmHg 91%
    22:00 -15°C° 0 mm 0 m/S 760 mmHg 91%
    23:00 -15°C° 0 mm 0 m/S 760 mmHg 92%

    übermorgen, 31 Januar, Freitag

    Zeit Temperatur Niederschläge Wind Luftdruck Luftfeuchtigkeit
    00:00 -16°C° 0 mm 0 m/S 760 mmHg 93%
    01:00 -17°C° 0 mm 0 m/S 760 mmHg 94%
    02:00 -17°C° 0 mm 0 m/S 760 mmHg 93%
    03:00 -17°C° 0 mm 0 m/S 760 mmHg 93%
    04:00 -17°C° 0 mm 0 m/S 760 mmHg 93%
    05:00 -17°C° 0 mm 0 m/S 760 mmHg 92%
    06:00 -17°C° 0 mm 0 m/S 760 mmHg 91%
    07:00 -17°C° 0 mm 0 m/S 760 mmHg 91%
    08:00 -15°C° 0 mm 0 m/S 760 mmHg 89%
    09:00 -13°C° 0 mm 0 m/S 760 mmHg 87%
    10:00 -11°C° 0 mm 0 m/S 760 mmHg 86%
    11:00 -10°C° 0 mm 0 m/S 759 mmHg 85%
    12:00 -8°C° 0 mm 0 m/S 759 mmHg 84%
    13:00 -7°C° 0 mm 0 m/S 758 mmHg 83%
    14:00 -7°C° 0 mm 0 m/S 758 mmHg 85%
    15:00 -7°C° 0 mm 0 m/S 758 mmHg 86%
    16:00 -7°C° 0 mm 0 m/S 757 mmHg 88%
    17:00 -7°C° 0.1 mm 1 m/S 757 mmHg 90%
    18:00 -7°C° 0.1 mm 1 m/S 757 mmHg 93%
    19:00 -8°C° 0.1 mm 1 m/S 757 mmHg 95%
    20:00 -8°C° 0.2 mm 1 m/S 757 mmHg 95%
    21:00 -8°C° 0.2 mm 1 m/S 757 mmHg 96%
    22:00 -8°C° 0.2 mm 1 m/S 756 mmHg 96%
    23:00 -8°C° 0.1 mm 1 m/S 756 mmHg 96%

    1 Februar, Samstag

    Zeit Temperatur Niederschläge Wind Luftdruck Luftfeuchtigkeit
    00:00 -8°C° 0.1 mm 1 m/S 756 mmHg 96%
    01:00 -9°C° 0.1 mm 1 m/S 755 mmHg 96%
    02:00 -9°C° 0 mm 1 m/S 755 mmHg 96%
    03:00 -10°C° 0 mm 1 m/S 754 mmHg 97%
    04:00 -11°C° 0 mm 1 m/S 754 mmHg 97%
    05:00 -11°C° 0 mm 1 m/S 754 mmHg 97%
    06:00 -11°C° 0 mm 1 m/S 754 mmHg 97%
    07:00 -11°C° 0 mm 1 m/S 754 mmHg 97%
    08:00 -10°C° 0 mm 1 m/S 754 mmHg 96%
    09:00 -9°C° 0 mm 1 m/S 753 mmHg 95%
    10:00 -7°C° 0 mm 1 m/S 753 mmHg 94%
    11:00 -6°C° 0 mm 1 m/S 753 mmHg 93%
    12:00 -4°C° 0 mm 1 m/S 752 mmHg 93%
    13:00 -3°C° 0 mm 1 m/S 751 mmHg 92%
    14:00 -3°C° 0 mm 1 m/S 751 mmHg 92%
    15:00 -3°C° 0 mm 1 m/S 750 mmHg 92%
    16:00 -2°C° 0 mm 1 m/S 750 mmHg 93%
    17:00 -3°C° 0 mm 1 m/S 750 mmHg 94%
    18:00 -3°C° 0 mm 1 m/S 750 mmHg 94%
    19:00 -4°C° 0 mm 1 m/S 750 mmHg 95%
    20:00 -4°C° 0 mm 1 m/S 749 mmHg 96%
    21:00 -4°C° 0 mm 1 m/S 749 mmHg 96%
    22:00 -4°C° 0 mm 1 m/S 749 mmHg 96%
    23:00 -4°C° 0 mm 1 m/S 749 mmHg 96%

    2 Februar, Sonntag

    Zeit Temperatur Niederschläge Wind Luftdruck Luftfeuchtigkeit
    00:00 -4°C° 0 mm 1 m/S 748 mmHg 96%
    01:00 -6°C° 0 mm 1 m/S 748 mmHg 96%
    02:00 -6°C° 0 mm 1 m/S 748 mmHg 96%
    03:00 -6°C° 0 mm 1 m/S 748 mmHg 96%
    04:00 -7°C° 0 mm 1 m/S 747 mmHg 96%
    05:00 -7°C° 0 mm 1 m/S 747 mmHg 96%
    06:00 -8°C° 0 mm 0 m/S 747 mmHg 96%
    07:00 -8°C° 0 mm 0 m/S 747 mmHg 96%
    08:00 -7°C° 0 mm 0 m/S 747 mmHg 94%
    09:00 -6°C° 0 mm 0 m/S 747 mmHg 93%
    10:00 -5°C° 0 mm 0 m/S 747 mmHg 91%
    11:00 -3°C° 0 mm 1 m/S 747 mmHg 91%
    12:00 -2°C° 0 mm 1 m/S 746 mmHg 91%
    13:00 -4°C° 0 mm 2 m/S 746 mmHg 91%
    14:00 -3°C° 0 mm 2 m/S 745 mmHg 91%
    15:00 -4°C° 0 mm 3 m/S 745 mmHg 91%
    16:00 -2°C° 0 mm 3 m/S 744 mmHg 91%
    17:00 -3°C° 0 mm 4 m/S 744 mmHg 91%
    18:00 -3°C° 0 mm 4 m/S 743 mmHg 92%
    19:00 -4°C° 0 mm 4 m/S 742 mmHg 92%
    20:00 -4°C° 0 mm 5 m/S 742 mmHg 90%
    21:00 -2°C° 0 mm 5 m/S 741 mmHg 89%
    22:00 -2°C° 0 mm 6 m/S 741 mmHg 87%
    23:00 -2°C° 0 mm 6 m/S 741 mmHg 87%

    3 Februar, Montag

    Zeit Temperatur Niederschläge Wind Luftdruck Luftfeuchtigkeit
    00:00 -2°C° 0 mm 6 m/S 740 mmHg 86%
    01:00 -2°C° 0 mm 6 m/S 740 mmHg 85%
    02:00 -2°C° 0 mm 6 m/S 741 mmHg 84%
    03:00 -3°C° 0 mm 6 m/S 742 mmHg 82%
    04:00 -3°C° 0 mm 6 m/S 743 mmHg 81%
    05:00 -4°C° 0 mm 5 m/S 744 mmHg 82%
    06:00 -4°C° 0 mm 4 m/S 745 mmHg 83%
    07:00 -7°C° 0 mm 4 m/S 746 mmHg 84%
    08:00 -5°C° 0 mm 4 m/S 747 mmHg 83%
    09:00 -5°C° 0 mm 4 m/S 748 mmHg 81%
    10:00 -4°C° 0 mm 4 m/S 748 mmHg 80%
    11:00 -3°C° 0 mm 4 m/S 748 mmHg 82%
    12:00 -3°C° 0 mm 4 m/S 748 mmHg 85%
    13:00 -1°C° 0 mm 3 m/S 748 mmHg 87%
    14:00 -1°C° 0 mm 3 m/S 748 mmHg 87%
    15:00 -1°C° 0 mm 3 m/S 748 mmHg 87%
    16:00 +1°C° 0 mm 2 m/S 748 mmHg 86%
    17:00 -1°C° 0 mm 2 m/S 748 mmHg 88%
    18:00 -2°C° 0 mm 2 m/S 748 mmHg 89%
    19:00 -3°C° 0 mm 2 m/S 748 mmHg 91%
    20:00 -3°C° 0 mm 2 m/S 748 mmHg 92%
    21:00 -4°C° 0 mm 3 m/S 748 mmHg 93%
    22:00 -4°C° 0 mm 3 m/S 747 mmHg 93%
    23:00 -4°C° 0 mm 3 m/S 747 mmHg 93%
    Mehr zeigen